User: anonymous   Login
Location: Livonia
(42.3680°N, 83.3530°W)
Time: 19:28:44
(UTC-05:00)
Language:

MOZ.5/SAFIR/RUBIN 5/SL-8 - Orbit

View from above orbital plane
View from above orbital plane
View from above satellite
View from above satellite

Ground track
Ground track

The orbit data is extracted from the following two-line orbital elements,

1 28898U 05043G   17350.39488715  .00000086  00000-0  27168-4 0  9990
2 28898  97.9508 132.4984 0019218 339.3350  20.7072 14.60232735646426
Epoch (UTC): 16 December 2017 09:28:38
Eccentricity: 0.0019218
inclination: 97.9508°
perigee height: 679 km
apogee height: 706 km
right ascension of ascending node: 132.4984°
argument of perigee: 339.3350°
revolutions per day: 14.60232735
mean anomaly at epoch: 20.7072°
orbit number at epoch: 64642

The dashed part of the orbit path shows where the satellite is in the earth's shadow,  

DLR